Regional Weather Roundup
Issued by NWS Goodland, KS

Home | Current Version | Previous Version | Graphics & Text | Print | Product List | Glossary On
Versions: 1 2 3 4 5 6 7 8 9 10 11 12 13 14 15 16 17 18 19 20 21 22 23 24 25 26 27 28 29 30 31 32 33 34 35 36 37 38 39 40 41 42 43 44 45 46 47 48 49 50
000
ASUS43 KGLD 241859
RWRGLD

GOODLAND FORECAST AREA HOURLY WEATHER ROUNDUP
NATIONAL WEATHER SERVICE GOODLAND KS
100 PM MDT SAT SEP 24 2016

...OFFICIAL OBSERVATIONS...

CITY           SKY/WX    TMP DP  RH WIND       PRES   REMARKS
GOODLAND KS    SUNNY     70  37  29 VRB3      30.00F
HILL CITY KS   MOSUNNY   72  53  51 N5        29.96F
IMPERIAL NEB   SUNNY     71  38  29 W6        29.99F
MCCOOK NEB     SUNNY     76  42  29 N6        29.95F HAZE
AKRON CO       SUNNY     68  25  19 SW8       30.01F
BURLINGTON CO  SUNNY     68  38  33 E5        30.03S
LIMON CO       SUNNY     68  21  16 VRB7      30.03F
$$

...UNOFFICIAL OBSERVATIONS...

CITY           SKY/WX    TMP DP  RH WIND       PRES   REMARKS
COLBY KS       SUNNY     73  45  35 N5        30.00S
LENORA KS        N/A     72  32  23 MISG        N/A
NORTON KS      SUNNY     73  41  31 CALM      29.95F
SHARON SPRINGS   N/A     70  45  40 CALM        N/A
KIT CARSON CO    N/A     68  41  36 CALM        N/A
$$




USA.gov is the U.S. government's official web portal to all federal, state and local government web resources and services.